Tracking 31027 objects as of 18-Jul-2025
HD Live streaming from Space Station
objects crossing your sky now

CZ-4B R/B

Track CZ-4B R/B now!
10-day predictions


NORAD ID: 44531
Int'l Code: 2019-059D
Perigee: 444.6 km
Apogee: 645.0 km
Inclination: 98.7 °
Period: 95.4 minutes
Semi major axis: 6915 km
RCS: Unknown
Launch date: September 12, 2019
Source: People's Republic of China (PRC)
Launch site: Taiyaun Space Center, China (TSC)

Note: This is a ROCKET BODY
Your satellite tracking list
Your tracking list is empty




NASA's NSSDC Master Catalog

Two Line Element Set (TLE):
1 44531U 19059D   25199.51637557  .00003055  00000-0  15371-3 0  9999
2 44531  98.7095 179.7235 0144884 271.3990  87.0642 15.09514705319312
Source of the keplerian elements: AFSPC